User: anonymous   Login
Location: Katowice
(50.2611°N, 19.0242°E)
Time: 13:40:45
(UTC+02:00)
Language:

Vanguard 1 Rocket - Orbit

View from above orbital plane
View from above orbital plane
View from above satellite
View from above satellite

Ground track
Ground track

The orbit data is extracted from the following two-line orbital elements,

1    16U 58002A   19200.85687729 +.00000029 +00000-0 +14538-4 0  9992
2    16 034.2817 037.8991 2026815 271.1722 065.8937 10.48748181423815
Epoch (UTC): 19 July 2019 20:33:54
Eccentricity: 0.2026815
inclination: 34.2817°
perigee height: 651 km
apogee height: 4225 km
right ascension of ascending node: 37.8991°
argument of perigee: 271.1722°
revolutions per day: 10.48748181
mean anomaly at epoch: 65.8937°
orbit number at epoch: 42381

The dashed part of the orbit path shows where the satellite is in the earth's shadow,  

DLR